Time,TemperatureF,DewpointF,PressureIn,WindDirection,WindDirectionDegrees,WindSpeedMPH,WindSpeedGustMPH,Humidity,HourlyPrecipIn,Conditions,Clouds,dailyrainin,SoftwareType,DateUTC
2013-03-09 00:00:00,34.0,30.0,30.47,ENE,70,5.0,-999.0,85,-99.99,,,-99.99,,2013-03-09 00:00:00,
2013-03-09 00:21:00,34.0,30.0,30.47,ENE,70,5.0,-999.0,85,-99.99,,,-99.99,,2013-03-09 00:21:00,
2013-03-09 00:31:00,34.0,30.0,30.47,ENE,70,5.0,-999.0,85,-99.99,,,-99.99,,2013-03-09 00:31:00,
2013-03-09 00:41:00,34.0,30.0,30.47,ENE,70,5.0,-999.0,85,-99.99,,,-99.99,,2013-03-09 00:41:00,
2013-03-09 00:51:00,34.0,30.0,30.47,ENE,70,5.0,-999.0,85,-99.99,,,-99.99,,2013-03-09 00:51:00,
2013-03-09 03:00:00,33.0,29.0,30.46,East,90,1.0,-999.0,87,-99.99,,,-99.99,,2013-03-09 03:00:00,
2013-03-09 03:21:00,33.0,29.0,30.46,East,90,1.0,-999.0,87,-99.99,,,-99.99,,2013-03-09 03:21:00,
2013-03-09 03:31:00,33.0,29.0,30.46,East,90,1.0,-999.0,87,-99.99,,,-99.99,,2013-03-09 03:31:00,
2013-03-09 03:41:00,33.0,29.0,30.46,East,90,1.0,-999.0,87,-99.99,,,-99.99,,2013-03-09 03:41:00,
2013-03-09 03:52:00,33.0,29.0,30.46,East,90,1.0,-999.0,87,-99.99,,,-99.99,,2013-03-09 03:52:00,
2013-03-09 06:00:00,30.0,29.0,30.46,WSW,250,1.0,-999.0,93,-99.99,,,-99.99,,2013-03-09 06:00:00,
2013-03-09 06:22:00,30.0,29.0,30.46,WSW,250,1.0,-999.0,93,-99.99,,,-99.99,,2013-03-09 06:22:00,
2013-03-09 06:31:00,30.0,29.0,30.46,WSW,250,1.0,-999.0,93,-99.99,,,-99.99,,2013-03-09 06:31:00,
2013-03-09 06:41:00,30.0,29.0,30.46,WSW,250,1.0,-999.0,93,-99.99,,,-99.99,,2013-03-09 06:41:00,
2013-03-09 06:51:00,30.0,29.0,30.46,WSW,250,1.0,-999.0,93,-99.99,,,-99.99,,2013-03-09 06:51:00,
2013-03-09 09:00:00,29.0,27.0,30.41,ESE,110,2.0,-999.0,90,-99.99,,,-99.99,,2013-03-09 09:00:00,
2013-03-09 09:21:00,29.0,27.0,30.41,ESE,110,2.0,-999.0,90,-99.99,,,-99.99,,2013-03-09 09:21:00,
2013-03-09 09:31:00,29.0,27.0,30.41,ESE,110,2.0,-999.0,90,-99.99,,,-99.99,,2013-03-09 09:31:00,
2013-03-09 09:41:00,29.0,27.0,30.41,ESE,110,2.0,-999.0,90,-99.99,,,-99.99,,2013-03-09 09:41:00,
2013-03-09 09:52:00,29.0,27.0,30.41,ESE,110,2.0,-999.0,90,-99.99,,,-99.99,,2013-03-09 09:52:00,
2013-03-09 12:00:00,28.0,26.0,30.43,East,100,1.0,-999.0,92,-99.99,,,-99.99,,2013-03-09 12:00:00,
2013-03-09 12:21:00,28.0,26.0,30.43,East,100,1.0,-999.0,92,-99.99,,,-99.99,,2013-03-09 12:21:00,
2013-03-09 12:31:00,28.0,26.0,30.43,East,100,1.0,-999.0,92,-99.99,,,-99.99,,2013-03-09 12:31:00,
2013-03-09 12:42:00,28.0,26.0,30.43,East,100,1.0,-999.0,92,-99.99,,,-99.99,,2013-03-09 12:42:00,
2013-03-09 12:52:00,28.0,26.0,30.43,East,100,1.0,-999.0,92,-99.99,,,-99.99,,2013-03-09 12:52:00,
2013-03-09 15:00:00,34.0,30.0,30.41,SSE,150,2.0,-999.0,85,-99.99,,,-99.99,,2013-03-09 15:00:00,
2013-03-09 15:21:00,34.0,30.0,30.41,SSE,150,2.0,-999.0,85,-99.99,,,-99.99,,2013-03-09 15:21:00,
2013-03-09 15:31:00,34.0,30.0,30.41,SSE,150,2.0,-999.0,85,-99.99,,,-99.99,,2013-03-09 15:31:00,
2013-03-09 15:42:00,34.0,30.0,30.41,SSE,150,2.0,-999.0,85,-99.99,,,-99.99,,2013-03-09 15:42:00,
2013-03-09 15:52:00,34.0,30.0,30.41,SSE,150,2.0,-999.0,85,-99.99,,,-99.99,,2013-03-09 15:52:00,
2013-03-09 18:00:00,40.0,31.0,30.35,SSE,150,8.0,-999.0,70,-99.99,,,-99.99,,2013-03-09 18:00:00,
2013-03-09 18:21:00,40.0,31.0,30.35,SSE,150,8.0,-999.0,70,-99.99,,,-99.99,,2013-03-09 18:21:00,
2013-03-09 18:31:00,40.0,31.0,30.35,SSE,150,8.0,-999.0,70,-99.99,,,-99.99,,2013-03-09 18:31:00,
2013-03-09 18:41:00,40.0,31.0,30.35,SSE,150,8.0,-999.0,70,-99.99,,,-99.99,,2013-03-09 18:41:00,
2013-03-09 18:51:00,40.0,31.0,30.35,SSE,150,8.0,-999.0,70,-99.99,,,-99.99,,2013-03-09 18:51:00,
2013-03-09 21:00:00,41.0,30.0,30.24,SE,140,16.0,-999.0,64,-99.99,,,-99.99,,2013-03-09 21:00:00,
2013-03-09 21:21:00,41.0,30.0,30.24,SE,140,16.0,-999.0,64,-99.99,,,-99.99,,2013-03-09 21:21:00,
2013-03-09 21:31:00,41.0,30.0,30.24,SE,140,16.0,-999.0,64,-99.99,,,-99.99,,2013-03-09 21:31:00,
2013-03-09 21:41:00,41.0,30.0,30.24,SE,140,16.0,-999.0,64,-99.99,,,-99.99,,2013-03-09 21:41:00,
2013-03-09 21:51:00,41.0,30.0,30.24,SE,140,16.0,-999.0,64,-99.99,,,-99.99,,2013-03-09 21:51:00,